When you browse on this site, cookies collect data to enhance your experience and personalize the content and advertising you see.
Visit our Privacy Policy to learn more. By continuing to use the site, you agree to this use of cookies and data.

Hourly Weather Asha

Today, 9 July, Thursday

Time Temperature Precipitation Wind Pressure Humidity
00:00 +22°C° 0 mm 1 mps 746 mmHg 89%
01:00 +21°C° 0 mm 1 mps 746 mmHg 91%
02:00 +21°C° 0 mm 1 mps 746 mmHg 92%
03:00 +20°C° 0 mm 1 mps 746 mmHg 92%
04:00 +20°C° 0 mm 1 mps 746 mmHg 93%
05:00 +22°C° 0 mm 1 mps 746 mmHg 87%
06:00 +21°C° 0 mm 0 mps 746 mmHg 82%
07:00 +23°C° 0 mm 0 mps 747 mmHg 76%
08:00 +25°C° 0 mm 0 mps 747 mmHg 69%
09:00 +27°C° 0 mm 0 mps 747 mmHg 61%
10:00 +29°C° 0 mm 0 mps 746 mmHg 54%
11:00 +30°C° 0 mm 0 mps 746 mmHg 50%
12:00 +31°C° 0 mm 0 mps 746 mmHg 46%
13:00 +32°C° 0 mm 0 mps 746 mmHg 43%
14:00 +34°C° 0 mm 1 mps 746 mmHg 43%
15:00 +33°C° 0 mm 1 mps 745 mmHg 43%
16:00 +33°C° 0 mm 1 mps 745 mmHg 43%
17:00 +31°C° 0 mm 1 mps 745 mmHg 54%
18:00 +30°C° 0 mm 1 mps 745 mmHg 64%
19:00 +28°C° 0 mm 1 mps 744 mmHg 74%
20:00 +26°C° 0 mm 1 mps 744 mmHg 80%
21:00 +25°C° 0 mm 1 mps 744 mmHg 85%
22:00 +21°C° 0 mm 0 mps 745 mmHg 90%
23:00 +21°C° 0 mm 0 mps 744 mmHg 91%

Tomorrow, 10 July, Friday

Time Temperature Precipitation Wind Pressure Humidity
00:00 +22°C° 0 mm 1 mps 744 mmHg 92%
01:00 +22°C° 0 mm 1 mps 744 mmHg 93%
02:00 +21°C° 0 mm 1 mps 744 mmHg 93%
03:00 +21°C° 0 mm 1 mps 745 mmHg 93%
04:00 +21°C° 0 mm 1 mps 745 mmHg 93%
05:00 +21°C° 0 mm 0 mps 745 mmHg 87%
06:00 +22°C° 0 mm 0 mps 745 mmHg 81%
07:00 +24°C° 0 mm 0 mps 744 mmHg 75%
08:00 +26°C° 0 mm 0 mps 745 mmHg 68%
09:00 +28°C° 0 mm 0 mps 745 mmHg 62%
10:00 +30°C° 0 mm 0 mps 745 mmHg 55%
11:00 +31°C° 0 mm 0 mps 745 mmHg 51%
12:00 +34°C° 0 mm 1 mps 745 mmHg 48%
13:00 +34°C° 0 mm 1 mps 745 mmHg 44%
14:00 +34°C° 0 mm 1 mps 744 mmHg 46%
15:00 +33°C° 0 mm 1 mps 744 mmHg 47%
16:00 +34°C° 0 mm 2 mps 744 mmHg 49%
17:00 +32°C° 0 mm 2 mps 744 mmHg 57%
18:00 +30°C° 0 mm 1 mps 744 mmHg 66%
19:00 +29°C° 0 mm 1 mps 744 mmHg 74%
20:00 +27°C° 0 mm 1 mps 744 mmHg 78%
21:00 +26°C° 0 mm 1 mps 745 mmHg 83%
22:00 +24°C° 0 mm 1 mps 745 mmHg 87%
23:00 +24°C° 0 mm 1 mps 745 mmHg 87%

Day after tomorrow, 11 July, Saturday

Time Temperature Precipitation Wind Pressure Humidity
00:00 +21°C° 0 mm 0 mps 745 mmHg 87%
01:00 +21°C° 0 mm 0 mps 745 mmHg 87%
02:00 +21°C° 0 mm 0 mps 745 mmHg 88%
03:00 +20°C° 0 mm 0 mps 745 mmHg 89%
04:00 +20°C° 0 mm 0 mps 745 mmHg 90%
05:00 +21°C° 0.1 mm 0 mps 745 mmHg 88%
06:00 +22°C° 0.1 mm 0 mps 745 mmHg 86%
07:00 +23°C° 0.1 mm 0 mps 745 mmHg 83%
08:00 +26°C° 0.7 mm 1 mps 745 mmHg 81%
09:00 +27°C° 0.7 mm 1 mps 745 mmHg 79%
10:00 +28°C° 0.7 mm 2 mps 745 mmHg 77%
11:00 +29°C° 0.3 mm 2 mps 745 mmHg 69%
12:00 +30°C° 0.3 mm 2 mps 745 mmHg 62%
13:00 +31°C° 0.3 mm 2 mps 745 mmHg 55%
14:00 +31°C° 0.1 mm 2 mps 746 mmHg 56%
15:00 +31°C° 0.1 mm 3 mps 746 mmHg 57%
16:00 +31°C° 0.1 mm 3 mps 746 mmHg 58%
17:00 +29°C° 0.1 mm 3 mps 746 mmHg 65%
18:00 +28°C° 0.1 mm 2 mps 746 mmHg 72%
19:00 +26°C° 0.1 mm 2 mps 745 mmHg 79%
20:00 +25°C° 0 mm 1 mps 746 mmHg 85%
21:00 +23°C° 0 mm 1 mps 746 mmHg 90%
22:00 +20°C° 0 mm 0 mps 746 mmHg 96%
23:00 +21°C° 0 mm 1 mps 746 mmHg 96%

12 July, Sunday

Time Temperature Precipitation Wind Pressure Humidity
00:00 +21°C° 0 mm 1 mps 746 mmHg 96%
01:00 +20°C° 0 mm 1 mps 747 mmHg 96%
02:00 +20°C° 0 mm 1 mps 747 mmHg 96%
03:00 +19°C° 0 mm 1 mps 747 mmHg 97%
04:00 +19°C° 0 mm 1 mps 747 mmHg 97%
05:00 +20°C° 0 mm 1 mps 747 mmHg 93%
06:00 +21°C° 0 mm 1 mps 747 mmHg 88%
07:00 +23°C° 0 mm 1 mps 747 mmHg 84%
08:00 +25°C° 0 mm 1 mps 747 mmHg 72%
09:00 +27°C° 0 mm 1 mps 747 mmHg 59%
10:00 +29°C° 0 mm 1 mps 747 mmHg 47%
11:00 +29°C° 0 mm 1 mps 747 mmHg 43%
12:00 +30°C° 0 mm 1 mps 747 mmHg 39%
13:00 +31°C° 0 mm 1 mps 747 mmHg 35%
14:00 +31°C° 0 mm 1 mps 747 mmHg 37%
15:00 +30°C° 0 mm 2 mps 747 mmHg 38%
16:00 +30°C° 0 mm 2 mps 747 mmHg 40%
17:00 +28°C° 0 mm 2 mps 746 mmHg 51%
18:00 +27°C° 0 mm 1 mps 746 mmHg 63%
19:00 +25°C° 0 mm 1 mps 746 mmHg 74%
20:00 +23°C° 0 mm 1 mps 746 mmHg 78%
21:00 +21°C° 0 mm 1 mps 746 mmHg 81%
22:00 +20°C° 0 mm 1 mps 746 mmHg 85%
23:00 +19°C° 0 mm 1 mps 746 mmHg 85%

13 July, Monday

Time Temperature Precipitation Wind Pressure Humidity
00:00 +18°C° 0 mm 1 mps 746 mmHg 84%
01:00 +18°C° 0 mm 1 mps 746 mmHg 84%
02:00 +16°C° 0 mm 1 mps 746 mmHg 84%
03:00 +16°C° 0 mm 1 mps 746 mmHg 84%
04:00 +16°C° 0 mm 1 mps 746 mmHg 83%
05:00 +18°C° 0 mm 1 mps 746 mmHg 78%
06:00 +20°C° 0 mm 1 mps 746 mmHg 73%
07:00 +22°C° 0 mm 1 mps 746 mmHg 68%
08:00 +24°C° 0 mm 1 mps 746 mmHg 61%
09:00 +26°C° 0 mm 1 mps 746 mmHg 55%
10:00 +29°C° 0 mm 1 mps 745 mmHg 48%
11:00 +30°C° 0 mm 1 mps 745 mmHg 46%
12:00 +31°C° 0 mm 1 mps 745 mmHg 44%
13:00 +33°C° 0 mm 1 mps 745 mmHg 42%
14:00 +32°C° 0 mm 1 mps 745 mmHg 43%
15:00 +32°C° 0 mm 1 mps 745 mmHg 43%
16:00 +32°C° 0 mm 1 mps 745 mmHg 44%
17:00 +30°C° 0 mm 1 mps 745 mmHg 54%
18:00 +29°C° 0 mm 1 mps 744 mmHg 64%
19:00 +27°C° 0 mm 1 mps 744 mmHg 75%
20:00 +26°C° 0 mm 1 mps 744 mmHg 77%
21:00 +24°C° 0 mm 1 mps 744 mmHg 80%
22:00 +23°C° 0 mm 1 mps 744 mmHg 82%
23:00 +22°C° 0 mm 1 mps 744 mmHg 83%

14 July, Tuesday

Time Temperature Precipitation Wind Pressure Humidity
00:00 +22°C° 0 mm 1 mps 744 mmHg 85%
01:00 +22°C° 0 mm 1 mps 744 mmHg 86%
02:00 +21°C° 0.1 mm 1 mps 744 mmHg 88%
03:00 +21°C° 0.1 mm 1 mps 745 mmHg 89%
04:00 +21°C° 0.1 mm 1 mps 745 mmHg 91%
05:00 +22°C° 0 mm 1 mps 745 mmHg 87%
06:00 +23°C° 0 mm 1 mps 745 mmHg 83%
07:00 +25°C° 0 mm 1 mps 745 mmHg 79%
08:00 +27°C° 0 mm 1 mps 745 mmHg 70%
09:00 +29°C° 0 mm 2 mps 745 mmHg 60%
10:00 +31°C° 0 mm 2 mps 745 mmHg 50%
11:00 +32°C° 0 mm 2 mps 745 mmHg 48%
12:00 +34°C° 0 mm 2 mps 745 mmHg 45%
13:00 +35°C° 0 mm 2 mps 745 mmHg 42%
14:00 +35°C° 0 mm 2 mps 745 mmHg 41%
15:00 +35°C° 0 mm 2 mps 745 mmHg 40%
16:00 +34°C° 0 mm 1 mps 745 mmHg 39%
17:00 +33°C° 0 mm 1 mps 745 mmHg 48%
18:00 +31°C° 0 mm 1 mps 745 mmHg 58%
19:00 +28°C° 0 mm 0 mps 744 mmHg 67%
20:00 +28°C° 0.3 mm 1 mps 744 mmHg 74%
21:00 +25°C° 0.3 mm 1 mps 745 mmHg 82%
22:00 +23°C° 0.3 mm 2 mps 745 mmHg 89%
23:00 +23°C° 0.2 mm 2 mps 745 mmHg 90%
Show more